| time (UTC) | temp F | wind direction | speed knots | gust knots | rain 1hr in | rain 24hr in | rain mn in | humidity % | barometer mb |
| 20260508093147 | 50 | 221 | 0.9 | 2.6 | 0.00 | 0.00 | 0.00 | 65 | 1009.6 |
| 20260508092647 | 50 | 17 | 1.7 | 2.6 | 0.00 | 0.00 | 0.00 | 66 | 1009.3 |
| 20260508091646 | 51 | 93 | 0.9 | 3.5 | 0.00 | 0.00 | 0.00 | 65 | 1009.2 |
| 20260508090646 | 51 | 28 | 1.7 | 2.6 | 0.00 | 0.00 | 0.00 | 63 | 1009.6 |
| 20260508090146 | 52 | 9 | 0.9 | 2.6 | 0.00 | 0.00 | 0.00 | 64 | 1009.7 |
| 20260508085646 | 52 | 153 | 0.9 | 2.6 | 0.00 | 0.00 | 0.00 | 62 | 1009.7 |
| 20260508085140 | 52 | 9 | 0.9 | 2.6 | 0.00 | 0.00 | 0.00 | 63 | 1009.7 |
| 20260508084639 | 52 | 221 | 0.9 | 4.3 | 0.00 | 0.00 | 0.00 | 60 | 1009.7 |
| 20260508084138 | 51 | 24 | 0.9 | 4.3 | 0.00 | 0.00 | 0.00 | 65 | 1009.7 |
| 20260508083638 | 52 | 216 | 1.7 | 4.3 | 0.00 | 0.00 | 0.00 | 64 | 1009.8 |
| 20260508082637 | 52 | 230 | 2.6 | 4.3 | 0.00 | 0.00 | 0.00 | 65 | 1009.6 |
| 20260508081137 | 52 | 15 | 0.9 | 1.7 | 0.00 | 0.00 | 0.00 | 66 | 1009.3 |
| 20260508080637 | 52 | 126 | 1.7 | 1.7 | 0.00 | 0.00 | 0.00 | 65 | 1009.6 |
| 20260508080138 | 51 | 247 | 0.0 | 1.7 | 0.00 | 0.00 | 0.00 | 64 | 1009.6 |
| 20260508075630 | 51 | 64 | 0.9 | 2.6 | 0.00 | 0.00 | 0.00 | 66 | 1009.7 |
| 20260508075131 | 50 | 31 | 0.9 | 3.5 | 0.00 | 0.00 | 0.00 | 68 | 1009.9 |
| 20260508074631 | 50 | 334 | 1.7 | 3.5 | 0.00 | 0.00 | 0.00 | 69 | 1009.9 |
| 20260508073629 | 51 | 255 | 1.7 | 2.6 | 0.00 | 0.00 | 0.00 | 70 | 1009.7 |
| 20260508072629 | 51 | 186 | 1.7 | 3.5 | 0.00 | 0.00 | 0.00 | 70 | 1009.2 |
| 20260508072129 | 51 | 209 | 0.9 | 3.5 | 0.00 | 0.00 | 0.00 | 69 | 1009.3 |
| 20260508071628 | 51 | 209 | 1.7 | 3.5 | 0.00 | 0.00 | 0.00 | 66 | 1009.4 |
| 20260508071128 | 50 | 26 | 0.9 | 1.7 | 0.00 | 0.00 | 0.00 | 67 | 1009.4 |
| 20260508070629 | 50 | 9 | 0.9 | 1.7 | 0.00 | 0.00 | 0.00 | 69 | 1009.5 |
| 20260508070124 | 50 | 9 | 0.9 | 1.7 | 0.00 | 0.00 | 0.00 | 71 | 1009.6 |
| 20260508065623 | 49 | 221 | 0.0 | 1.7 | 0.00 | 0.00 | 0.00 | 72 | 1009.6 |
| 20260508065123 | 49 | 137 | 0.9 | 1.7 | 0.00 | 0.00 | 0.00 | 71 | 1009.7 |
| 20260508064622 | 49 | 319 | 0.0 | 1.7 | 0.00 | 0.00 | 0.00 | 72 | 1009.8 |
| 20260508064122 | 49 | 34 | 0.9 | 1.7 | 0.00 | 0.00 | 0.00 | 73 | 1009.8 |
| 20260508063622 | 48 | 111 | 0.9 | 1.7 | 0.00 | 0.00 | 0.00 | 74 | 1009.8 |
| 20260508063121 | 48 | 93 | 0.0 | 1.7 | 0.00 | 0.00 | 0.00 | 73 | 1009.9 |
| 20260508062621 | 48 | 334 | 0.9 | 1.7 | 0.00 | 0.00 | 0.00 | 73 | 1009.9 |
| 20260508061620 | 47 | 178 | 0.0 | 2.6 | 0.00 | 0.00 | 0.00 | 74 | 1009.8 |
| 20260508061120 | 47 | 334 | 0.9 | 2.6 | 0.00 | 0.00 | 0.00 | 74 | 1009.7 |
| 20260508060620 | 47 | 336 | 0.9 | 1.7 | 0.00 | 0.00 | 0.00 | 74 | 1009.4 |
| 20260508060119 | 47 | 205 | 0.9 | 1.7 | 0.00 | 0.00 | 0.00 | 74 | 1009.5 |
| 20260508055118 | 47 | 334 | 0.0 | 0.9 | 0.00 | 0.00 | 0.00 | 75 | 1009.3 |
| 20260508054620 | 47 | 238 | 0.0 | 1.7 | 0.00 | 0.00 | 0.00 | 76 | 1009.5 |
| 20260508054113 | 47 | 265 | 0.9 | 1.7 | 0.00 | 0.00 | 0.00 | 76 | 1009.6 |
| 20260508053612 | 47 | 212 | 0.0 | 1.7 | 0.00 | 0.00 | 0.00 | 76 | 1009.5 |
| 20260508052602 | 47 | 321 | 0.9 | 2.6 | 0.00 | 0.00 | 0.00 | 76 | 1009.5 |
| 20260508052102 | 47 | 22 | 0.9 | 1.7 | 0.00 | 0.00 | 0.00 | 75 | 1009.5 |
| 20260508051602 | 47 | 9 | 0.9 | 1.7 | 0.00 | 0.00 | 0.00 | 75 | 1009.5 |
| 20260508051101 | 47 | 330 | 0.9 | 1.7 | 0.00 | 0.00 | 0.00 | 75 | 1009.6 |
| 20260508045601 | 47 | 221 | 0.9 | 1.7 | 0.00 | 0.00 | 0.00 | 73 | 1009.6 |
| 20260508045101 | 47 | 115 | 0.9 | 1.7 | 0.00 | 0.00 | 0.00 | 72 | 1009.7 |
| 20260508044601 | 47 | 282 | 0.0 | 0.9 | 0.00 | 0.00 | 0.00 | 70 | 1009.7 |
| 20260508044100 | 48 | 51 | 0.0 | 0.9 | 0.00 | 0.00 | 0.00 | 70 | 1009.8 |
| 20260508043050 | 48 | 291 | 0.9 | 1.7 | 0.00 | 0.00 | 0.00 | 68 | 1009.7 |
| 20260508042553 | 48 | 205 | 0.0 | 1.7 | 0.00 | 0.00 | 0.00 | 67 | 1009.7 |
| 20260508042050 | 49 | 325 | 0.9 | 1.7 | 0.00 | 0.00 | 0.00 | 66 | 1009.6 |
| 20260508041550 | 49 | 309 | 0.9 | 1.7 | 0.00 | 0.00 | 0.00 | 65 | 1009.8 |
| 20260508041049 | 49 | 153 | 0.9 | 1.7 | 0.00 | 0.00 | 0.00 | 64 | 1009.7 |
| 20260508040550 | 49 | 119 | 0.9 | 1.7 | 0.00 | 0.00 | 0.00 | 65 | 1009.8 |
| 20260508040049 | 49 | 9 | 0.9 | 1.7 | 0.00 | 0.00 | 0.00 | 64 | 1009.8 |
| 20260508035549 | 50 | 279 | 0.9 | 1.7 | 0.00 | 0.00 | 0.00 | 64 | 1009.8 |
| 20260508035049 | 50 | 309 | 0.9 | 1.7 | 0.00 | 0.00 | 0.00 | 63 | 1009.7 |
| 20260508034548 | 50 | 9 | 0.0 | 1.7 | 0.00 | 0.00 | 0.00 | 62 | 1009.5 |
| 20260508034049 | 51 | 51 | 0.0 | 1.7 | 0.00 | 0.00 | 0.00 | 62 | 1009.6 |
| 20260508033548 | 51 | 108 | 1.7 | 1.7 | 0.00 | 0.00 | 0.00 | 62 | 1009.6 |
| 20260508032547 | 51 | 149 | 0.9 | 1.7 | 0.00 | 0.00 | 0.00 | 59 | 1009.6 |
| 20260508032048 | 51 | 158 | 0.9 | 1.7 | 0.00 | 0.00 | 0.00 | 58 | 1009.6 |
| 20260508031546 | 52 | 9 | 0.0 | 0.9 | 0.00 | 0.00 | 0.00 | 57 | 1009.6 |
| 20260508031041 | 52 | 325 | 0.0 | 0.9 | 0.00 | 0.00 | 0.00 | 55 | 1009.7 |
| 20260508030537 | 53 | 309 | 0.0 | 0.9 | 0.00 | 0.00 | 0.00 | 53 | 1009.6 |
| 20260508030036 | 53 | 309 | 0.0 | 0.9 | 0.00 | 0.00 | 0.00 | 51 | 1009.6 |
| 20260508025035 | 55 | 291 | 0.0 | 0.9 | 0.00 | 0.00 | 0.00 | 49 | 1009.5 |
| 20260508024535 | 55 | 309 | 0.0 | 0.9 | 0.00 | 0.00 | 0.00 | 47 | 1009.4 |
| 20260508024035 | 56 | 9 | 0.0 | 0.9 | 0.00 | 0.00 | 0.00 | 45 | 1009.5 |
| 20260508023530 | 57 | 238 | 0.0 | 0.9 | 0.00 | 0.00 | 0.00 | 44 | 1009.3 |
| 20260508022529 | 58 | 221 | 0.0 | 1.7 | 0.00 | 0.00 | 0.00 | 42 | 1009.3 |
| 20260508022029 | 59 | 119 | 0.0 | 1.7 | 0.00 | 0.00 | 0.00 | 41 | 1009.2 |
| 20260508021029 | 61 | 51 | 0.0 | 1.7 | 0.00 | 0.00 | 0.00 | 38 | 1009.1 |
| 20260508020527 | 62 | 221 | 0.9 | 2.6 | 0.00 | 0.00 | 0.00 | 36 | 1008.9 |
| 20260508020022 | 63 | 265 | 0.9 | 2.6 | 0.00 | 0.00 | 0.00 | 33 | 1008.9 |
| 20260508015522 | 63 | 47 | 0.9 | 2.6 | 0.00 | 0.00 | 0.00 | 31 | 1008.7 |
| 20260508015022 | 64 | 44 | 1.7 | 3.5 | 0.00 | 0.00 | 0.00 | 31 | 1008.8 |
| 20260508014522 | 63 | 22 | 1.7 | 3.5 | 0.00 | 0.00 | 0.00 | 30 | 1008.8 |
| 20260508013521 | 62 | 9 | 1.7 | 3.5 | 0.00 | 0.00 | 0.00 | 31 | 1008.8 |
| 20260508012521 | 63 | 34 | 1.7 | 3.5 | 0.00 | 0.00 | 0.00 | 33 | 1008.8 |
| 20260508011520 | 63 | 338 | 2.6 | 3.5 | 0.00 | 0.00 | 0.00 | 34 | 1008.6 |
| 20260508010519 | 64 | 342 | 2.6 | 7.0 | 0.00 | 0.00 | 0.00 | 33 | 1008.4 |
| 20260508010020 | 65 | 23 | 2.6 | 7.0 | 0.00 | 0.00 | 0.00 | 33 | 1008.3 |
| 20260508005520 | 65 | 26 | 3.5 | 7.8 | 0.00 | 0.00 | 0.00 | 33 | 1008.3 |
| 20260508005019 | 65 | 341 | 3.5 | 7.8 | 0.00 | 0.00 | 0.00 | 33 | 1008.2 |
| 20260508004517 | 66 | 336 | 4.3 | 8.7 | 0.00 | 0.00 | 0.00 | 33 | 1008.2 |
| 20260508004018 | 67 | 24 | 3.5 | 8.7 | 0.00 | 0.00 | 0.00 | 33 | 1008.2 |
| 20260508003016 | 68 | 335 | 3.5 | 7.0 | 0.00 | 0.00 | 0.00 | 31 | 1008.1 |
| 20260508002516 | 68 | 341 | 3.5 | 7.8 | 0.00 | 0.00 | 0.00 | 31 | 1008.0 |
| 20260508002015 | 69 | 346 | 3.5 | 7.8 | 0.00 | 0.00 | 0.00 | 30 | 1008.1 |
| 20260508001515 | 69 | 341 | 3.5 | 7.8 | 0.00 | 0.00 | 0.00 | 32 | 1008.1 |
| 20260508000515 | 70 | 329 | 4.3 | 10.4 | 0.00 | 0.00 | 0.00 | 30 | 1008.0 |
| 20260507235515 | 71 | 325 | 1.7 | 8.7 | 0.00 | 0.00 | 0.00 | 31 | 1008.0 |
| 20260507234513 | 72 | 286 | 2.6 | 7.0 | 0.00 | 0.00 | 0.00 | 29 | 1007.9 |
| 20260507234015 | 72 | 291 | 2.6 | 10.4 | 0.00 | 0.00 | 0.00 | 30 | 1008.0 |
| 20260507233513 | 73 | 234 | 3.5 | 10.4 | 0.00 | 0.00 | 0.00 | 30 | 1008.0 |
| 20260507233013 | 73 | 9 | 3.5 | 8.7 | 0.00 | 0.00 | 0.00 | 29 | 1008.0 |
| 20260507232513 | 73 | 298 | 3.5 | 9.6 | 0.00 | 0.00 | 0.00 | 29 | 1008.0 |
| 20260507232013 | 73 | 304 | 3.5 | 9.6 | 0.00 | 0.00 | 0.00 | 31 | 1007.9 |
| 20260507231512 | 73 | 273 | 4.3 | 8.7 | 0.00 | 0.00 | 0.00 | 28 | 1008.0 |
| 20260507231012 | 73 | 22 | 1.7 | 8.7 | 0.00 | 0.00 | 0.00 | 29 | 1008.1 |
| 20260507230511 | 73 | 350 | 4.3 | 10.4 | 0.00 | 0.00 | 0.00 | 30 | 1007.8 |
| 20260507225511 | 74 | 309 | 5.2 | 11.3 | 0.00 | 0.00 | 0.00 | 30 | 1007.9 |
| 20260507225011 | 75 | 342 | 5.2 | 10.4 | 0.00 | 0.00 | 0.00 | 28 | 1007.8 |
| 20260507224510 | 76 | 336 | 3.5 | 7.8 | 0.00 | 0.00 | 0.00 | 29 | 1007.9 |
| 20260507224012 | 76 | 20 | 3.5 | 11.3 | 0.00 | 0.00 | 0.00 | 28 | 1007.8 |
| 20260507223510 | 76 | 316 | 4.3 | 11.3 | 0.00 | 0.00 | 0.00 | 29 | 1007.9 |
| 20260507223009 | 76 | 330 | 4.3 | 9.6 | 0.00 | 0.00 | 0.00 | 28 | 1007.9 |
| 20260507222509 | 76 | 273 | 1.7 | 8.7 | 0.00 | 0.00 | 0.00 | 28 | 1008.0 |
| 20260507222009 | 75 | 300 | 2.6 | 9.6 | 0.00 | 0.00 | 0.00 | 31 | 1007.9 |
| 20260507221508 | 75 | 291 | 1.7 | 12.2 | 0.00 | 0.00 | 0.00 | 29 | 1007.9 |
| 20260507220508 | 76 | 314 | 4.3 | 9.6 | 0.00 | 0.00 | 0.00 | 28 | 1007.9 |
| 20260507220007 | 75 | 15 | 4.3 | 8.7 | 0.00 | 0.00 | 0.00 | 31 | 1007.9 |
| 20260507215007 | 75 | 259 | 5.2 | 11.3 | 0.00 | 0.00 | 0.00 | 28 | 1007.8 |
| 20260507214506 | 75 | 298 | 3.5 | 11.3 | 0.00 | 0.00 | 0.00 | 32 | 1007.9 |
| 20260507214007 | 76 | 247 | 4.3 | 11.3 | 0.00 | 0.00 | 0.00 | 28 | 1007.9 |
| 20260507213506 | 76 | 11 | 3.5 | 11.3 | 0.00 | 0.00 | 0.00 | 30 | 1008.0 |
| 20260507213006 | 76 | 330 | 3.5 | 11.3 | 0.00 | 0.00 | 0.00 | 31 | 1007.9 |
| 20260507212505 | 76 | 342 | 3.5 | 9.6 | 0.00 | 0.00 | 0.00 | 29 | 1008.1 |
| 20260507211505 | 76 | 271 | 4.3 | 17.4 | 0.00 | 0.00 | 0.00 | 31 | 1008.1 |
| 20260507211004 | 76 | 334 | 5.2 | 11.3 | 0.00 | 0.00 | 0.00 | 30 | 1008.2 |
| 20260507210504 | 76 | 329 | 2.6 | 10.4 | 0.00 | 0.00 | 0.00 | 29 | 1008.2 |
| 20260507210005 | 76 | 11 | 6.1 | 12.2 | 0.00 | 0.00 | 0.00 | 30 | 1008.3 |
| 20260507205503 | 77 | 321 | 5.2 | 12.2 | 0.00 | 0.00 | 0.00 | 30 | 1008.3 |
| 20260507205003 | 77 | 291 | 6.1 | 9.6 | 0.00 | 0.00 | 0.00 | 29 | 1008.4 |
| 20260507204004 | 76 | 351 | 3.5 | 9.6 | 0.00 | 0.00 | 0.00 | 32 | 1008.4 |
| 20260507203501 | 76 | 296 | 3.5 | 9.6 | 0.00 | 0.00 | 0.00 | 30 | 1008.5 |
| 20260507203001 | 76 | 9 | 3.5 | 12.2 | 0.00 | 0.00 | 0.00 | 32 | 1008.6 |
| 20260507202500 | 75 | 351 | 3.5 | 12.2 | 0.00 | 0.00 | 0.00 | 32 | 1008.6 |
| 20260507202001 | 74 | 9 | 2.6 | 9.6 | 0.00 | 0.00 | 0.00 | 32 | 1008.6 |
| 20260507201500 | 74 | 323 | 4.3 | 9.6 | 0.00 | 0.00 | 0.00 | 36 | 1008.6 |
| 20260507201000 | 74 | 23 | 2.6 | 9.6 | 0.00 | 0.00 | 0.00 | 34 | 1008.6 |
| 20260507200500 | 74 | 298 | 3.5 | 9.6 | 0.00 | 0.00 | 0.00 | 31 | 1008.7 |
| 20260507195959 | 74 | 11 | 3.5 | 9.6 | 0.00 | 0.00 | 0.00 | 30 | 1008.7 |
| 20260507195500 | 74 | 255 | 3.5 | 10.4 | 0.00 | 0.00 | 0.00 | 35 | 1008.7 |
| 20260507194458 | 73 | 252 | 3.5 | 12.2 | 0.00 | 0.00 | 0.00 | 36 | 1008.6 |
| 20260507193959 | 73 | 249 | 7.0 | 12.2 | 0.00 | 0.00 | 0.00 | 31 | 1008.8 |
| 20260507193459 | 74 | 250 | 7.8 | 11.3 | 0.00 | 0.00 | 0.00 | 31 | 1008.7 |
| 20260507192957 | 73 | 302 | 4.3 | 11.3 | 0.00 | 0.00 | 0.00 | 38 | 1008.7 |
| 20260507192457 | 73 | 279 | 5.2 | 10.4 | 0.00 | 0.00 | 0.00 | 41 | 1008.7 |
| 20260507191457 | 73 | 242 | 5.2 | 11.3 | 0.00 | 0.00 | 0.00 | 36 | 1008.8 |
| 20260507190956 | 72 | 240 | 3.5 | 13.9 | 0.00 | 0.00 | 0.00 | 37 | 1008.7 |
| 20260507190457 | 72 | 286 | 3.5 | 13.9 | 0.00 | 0.00 | 0.00 | 41 | 1008.9 |
| 20260507185955 | 72 | 309 | 6.1 | 11.3 | 0.00 | 0.00 | 0.00 | 38 | 1008.9 |
| 20260507185457 | 72 | 9 | 2.6 | 10.4 | 0.00 | 0.00 | 0.00 | 35 | 1008.8 |
| 20260507184455 | 71 | 223 | 5.2 | 12.2 | 0.00 | 0.00 | 0.00 | 37 | 1009.0 |
| 20260507183956 | 71 | 294 | 6.1 | 15.6 | 0.00 | 0.00 | 0.00 | 37 | 1008.9 |
| 20260507183455 | 71 | 257 | 6.1 | 15.6 | 0.00 | 0.00 | 0.00 | 40 | 1009.1 |
| 20260507182453 | 69 | 243 | 4.3 | 10.4 | 0.00 | 0.00 | 0.00 | 37 | 1009.1 |
| 20260507181953 | 71 | 254 | 6.1 | 10.4 | 0.00 | 0.00 | 0.00 | 35 | 1009.2 |
| 20260507181453 | 71 | 216 | 4.3 | 13.9 | 0.00 | 0.00 | 0.00 | 40 | 1009.3 |
| 20260507180952 | 70 | 261 | 4.3 | 13.9 | 0.00 | 0.00 | 0.00 | 39 | 1009.4 |
| 20260507180452 | 69 | 267 | 7.0 | 13.9 | 0.00 | 0.00 | 0.00 | 41 | 1009.3 |
| 20260507175952 | 69 | 273 | 7.8 | 13.0 | 0.00 | 0.00 | 0.00 | 38 | 1009.5 |
| 20260507175452 | 69 | 238 | 6.1 | 13.9 | 0.00 | 0.00 | 0.00 | 37 | 1009.6 |
| 20260507173951 | 67 | 291 | 3.5 | 13.0 | 0.00 | 0.00 | 0.00 | 46 | 1009.6 |
| 20260507173450 | 67 | 240 | 7.8 | 13.9 | 0.00 | 0.00 | 0.00 | 39 | 1009.7 |
| 20260507172950 | 67 | 241 | 7.0 | 13.9 | 0.00 | 0.00 | 0.00 | 40 | 1009.8 |
| 20260507172450 | 67 | 230 | 4.3 | 14.8 | 0.00 | 0.00 | 0.00 | 42 | 1009.9 |
| 20260507171949 | 66 | 309 | 6.1 | 14.8 | 0.00 | 0.00 | 0.00 | 42 | 1010.0 |
| 20260507171448 | 66 | 236 | 7.0 | 13.0 | 0.00 | 0.00 | 0.00 | 39 | 1010.0 |
| 20260507170948 | 66 | 238 | 6.1 | 14.8 | 0.00 | 0.00 | 0.00 | 40 | 1010.0 |
| 20260507170448 | 66 | 196 | 7.8 | 14.8 | 0.00 | 0.00 | 0.00 | 40 | 1010.3 |
| 20260507165948 | 66 | 250 | 3.5 | 9.6 | 0.00 | 0.00 | 0.00 | 42 | 1010.3 |
| 20260507165447 | 65 | 270 | 4.3 | 13.9 | 0.00 | 0.00 | 0.00 | 43 | 1010.4 |
| 20260507164448 | 66 | 200 | 3.5 | 8.7 | 0.00 | 0.00 | 0.00 | 43 | 1010.5 |
| 20260507163946 | 65 | 221 | 4.3 | 8.7 | 0.00 | 0.00 | 0.00 | 46 | 1010.5 |
| 20260507163447 | 65 | 254 | 2.6 | 9.6 | 0.00 | 0.00 | 0.00 | 44 | 1010.5 |
| 20260507161444 | 63 | 229 | 6.1 | 10.4 | 0.00 | 0.00 | 0.00 | 45 | 1010.8 |
| 20260507160944 | 63 | 229 | 5.2 | 9.6 | 0.00 | 0.00 | 0.00 | 49 | 1010.8 |
| 20260507160443 | 62 | 212 | 5.2 | 8.7 | 0.00 | 0.00 | 0.00 | 49 | 1010.8 |
| 20260507155942 | 62 | 178 | 3.5 | 8.7 | 0.00 | 0.00 | 0.00 | 48 | 1010.8 |
| 20260507155443 | 62 | 229 | 4.3 | 9.6 | 0.00 | 0.00 | 0.00 | 49 | 1010.9 |
| 20260507154942 | 62 | 249 | 4.3 | 9.6 | 0.00 | 0.00 | 0.00 | 51 | 1010.9 |
| 20260507153941 | 62 | 205 | 4.3 | 7.8 | 0.00 | 0.00 | 0.00 | 53 | 1011.0 |
| 20260507153441 | 61 | 232 | 2.6 | 7.8 | 0.00 | 0.00 | 0.00 | 50 | 1011.1 |
| 20260507152940 | 61 | 229 | 5.2 | 7.8 | 0.00 | 0.00 | 0.00 | 54 | 1011.2 |
| 20260507152441 | 61 | 282 | 5.2 | 8.7 | 0.00 | 0.00 | 0.00 | 54 | 1011.2 |
| 20260507151939 | 60 | 225 | 5.2 | 8.7 | 0.00 | 0.00 | 0.00 | 54 | 1011.3 |
| 20260507151439 | 60 | 237 | 2.6 | 9.6 | 0.00 | 0.00 | 0.00 | 57 | 1011.3 |
| 20260507150939 | 60 | 237 | 3.5 | 10.4 | 0.00 | 0.00 | 0.00 | 57 | 1011.4 |
| 20260507150439 | 59 | 248 | 5.2 | 10.4 | 0.00 | 0.00 | 0.00 | 56 | 1011.6 |
| 20260507145938 | 59 | 294 | 5.2 | 9.6 | 0.00 | 0.00 | 0.00 | 58 | 1011.6 |
| 20260507145437 | 59 | 306 | 2.6 | 9.6 | 0.00 | 0.00 | 0.00 | 61 | 1011.7 |
| 20260507144937 | 58 | 244 | 6.1 | 8.7 | 0.00 | 0.00 | 0.00 | 58 | 1011.6 |
| 20260507143937 | 56 | 344 | 4.3 | 7.8 | 0.00 | 0.00 | 0.00 | 64 | 1011.7 |
| 20260507143437 | 56 | 279 | 3.5 | 9.6 | 0.00 | 0.00 | 0.00 | 64 | 1011.6 |
| 20260507142936 | 55 | 221 | 5.2 | 9.6 | 0.00 | 0.00 | 0.00 | 63 | 1011.7 |
| 20260507142436 | 55 | 257 | 1.7 | 9.6 | 0.00 | 0.00 | 0.00 | 66 | 1011.7 |
| 20260507141936 | 54 | 203 | 4.3 | 10.4 | 0.00 | 0.00 | 0.00 | 66 | 1011.7 |
| 20260507141435 | 54 | 194 | 5.2 | 12.2 | 0.00 | 0.00 | 0.00 | 65 | 1011.8 |
| 20260507140434 | 53 | 230 | 5.2 | 10.4 | 0.00 | 0.00 | 0.00 | 67 | 1011.9 |
| 20260507135433 | 52 | 215 | 7.0 | 11.3 | 0.00 | 0.00 | 0.00 | 68 | 1011.8 |
| 20260507134934 | 52 | 262 | 5.2 | 10.4 | 0.00 | 0.00 | 0.00 | 68 | 1011.8 |
| 20260507134434 | 52 | 225 | 6.1 | 10.4 | 0.00 | 0.00 | 0.00 | 69 | 1011.9 |
| 20260507133933 | 51 | 273 | 5.2 | 11.3 | 0.00 | 0.00 | 0.00 | 71 | 1011.8 |
| 20260507133433 | 51 | 284 | 6.1 | 11.3 | 0.00 | 0.00 | 0.00 | 71 | 1011.9 |
| 20260507132932 | 51 | 225 | 4.3 | 13.0 | 0.00 | 0.00 | 0.00 | 73 | 1012.0 |
| 20260507132429 | 50 | 225 | 7.0 | 13.0 | 0.00 | 0.00 | 0.00 | 73 | 1011.9 |
| 20260507131426 | 49 | 257 | 4.3 | 11.3 | 0.00 | 0.00 | 0.00 | 75 | 1011.8 |
| 20260507130926 | 49 | 209 | 5.2 | 11.3 | 0.00 | 0.00 | 0.00 | 76 | 1012.1 |
| 20260507130426 | 48 | 221 | 4.3 | 10.4 | 0.00 | 0.00 | 0.00 | 77 | 1012.1 |
| 20260507125925 | 48 | 231 | 5.2 | 10.4 | 0.00 | 0.00 | 0.00 | 76 | 1012.1 |
| 20260507125424 | 48 | 203 | 6.1 | 9.6 | 0.00 | 0.00 | 0.00 | 77 | 1012.1 |
| 20260507124924 | 47 | 192 | 5.2 | 9.6 | 0.00 | 0.00 | 0.00 | 78 | 1012.1 |
| 20260507124425 | 47 | 262 | 4.3 | 8.7 | 0.00 | 0.00 | 0.00 | 79 | 1012.1 |
| 20260507123925 | 47 | 207 | 5.2 | 9.6 | 0.00 | 0.00 | 0.00 | 79 | 1012.1 |
| 20260507122923 | 46 | 226 | 4.3 | 9.6 | 0.00 | 0.00 | 0.00 | 80 | 1012.1 |
| 20260507122423 | 46 | 217 | 4.3 | 8.7 | 0.00 | 0.00 | 0.00 | 80 | 1012.1 |
| 20260507121421 | 45 | 226 | 2.6 | 7.8 | 0.00 | 0.00 | 0.00 | 80 | 1012.2 |
| 20260507120920 | 45 | 221 | 3.5 | 7.8 | 0.00 | 0.00 | 0.00 | 80 | 1012.2 |
| 20260507120422 | 45 | 221 | 3.5 | 7.0 | 0.00 | 0.00 | 0.00 | 80 | 1012.1 |
| 20260507115919 | 45 | 203 | 2.6 | 6.1 | 0.00 | 0.00 | 0.00 | 80 | 1012.1 |
| 20260507115419 | 45 | 196 | 2.6 | 6.1 | 0.00 | 0.00 | 0.00 | 80 | 1012.1 |
| 20260507114918 | 45 | 232 | 2.6 | 7.0 | 0.00 | 0.00 | 0.00 | 80 | 1012.1 |
| 20260507114418 | 45 | 257 | 2.6 | 7.0 | 0.00 | 0.00 | 0.00 | 80 | 1012.2 |
| 20260507113919 | 45 | 193 | 2.6 | 5.2 | 0.00 | 0.00 | 0.00 | 80 | 1012.2 |
| 20260507113417 | 45 | 225 | 3.5 | 7.0 | 0.00 | 0.00 | 0.00 | 80 | 1012.3 |
| 20260507112916 | 45 | 212 | 3.5 | 7.0 | 0.00 | 0.00 | 0.00 | 79 | 1012.2 |
| 20260507112415 | 45 | 255 | 2.6 | 6.1 | 0.00 | 0.00 | 0.00 | 79 | 1012.2 |
| 20260507111916 | 45 | 261 | 2.6 | 7.0 | 0.00 | 0.00 | 0.00 | 79 | 1012.3 |
| 20260507111415 | 45 | 238 | 2.6 | 7.8 | 0.00 | 0.00 | 0.00 | 79 | 1012.2 |
| 20260507110914 | 45 | 230 | 4.3 | 7.8 | 0.00 | 0.00 | 0.00 | 79 | 1012.2 |
| 20260507110414 | 45 | 214 | 3.5 | 6.1 | 0.00 | 0.00 | 0.00 | 79 | 1012.2 |
| 20260507105413 | 45 | 207 | 2.6 | 6.1 | 0.00 | 0.00 | 0.00 | 78 | 1012.3 |
| 20260507104912 | 45 | 265 | 3.5 | 6.1 | 0.00 | 0.00 | 0.00 | 78 | 1012.2 |
| 20260507104412 | 45 | 221 | 2.6 | 6.1 | 0.00 | 0.00 | 0.00 | 78 | 1012.3 |
| 20260507103411 | 45 | 214 | 2.6 | 7.0 | 0.00 | 0.00 | 0.00 | 78 | 1012.2 |
| 20260507102911 | 46 | 241 | 1.7 | 7.8 | 0.00 | 0.00 | 0.00 | 77 | 1012.2 |
| 20260507102410 | 46 | 250 | 4.3 | 7.8 | 0.00 | 0.00 | 0.00 | 77 | 1012.2 |
| 20260507101910 | 46 | 223 | 1.7 | 6.1 | 0.00 | 0.00 | 0.00 | 77 | 1012.2 |
| 20260507100909 | 46 | 250 | 2.6 | 6.1 | 0.00 | 0.00 | 0.00 | 77 | 1012.2 |
| 20260507100409 | 46 | 254 | 2.6 | 5.2 | 0.00 | 0.00 | 0.00 | 77 | 1012.2 |
| 20260507095909 | 46 | 219 | 2.6 | 5.2 | 0.00 | 0.00 | 0.00 | 76 | 1012.3 |
| 20260507095408 | 46 | 196 | 3.5 | 6.1 | 0.00 | 0.00 | 0.00 | 76 | 1012.3 |
| 20260507094908 | 46 | 232 | 3.5 | 6.1 | 0.00 | 0.00 | 0.00 | 76 | 1012.3 |
| 20260507094407 | 46 | 225 | 3.5 | 6.1 | 0.00 | 0.00 | 0.00 | 75 | 1012.4 |
| 20260507093406 | 46 | 219 | 2.6 | 6.1 | 0.00 | 0.00 | 0.00 | 75 | 1012.4 |